Find Starlink 32380

NORAD ID: 61069 Int'l Des: 2024-164 Owner: SPXS Country: US Constellation: starlink operational
LEOCIRCULAR

リアルタイム位置

3D地球を読み込み中...

Starlink 32380について

説明を読み込み中...

次回通過

Passes for default location (London). Set your location on the main map for personalized predictions.

高度履歴

Loading altitude history...

軌道要素

1 61069U 24164V 26126.34167301 -.00000435 00000-0 -25798-5 0 9991
2 61069 53.1613 183.3812 0001249 98.2075 261.9068 15.30183650 92304
Epoch: May 6, 2026 • Age: 34 hours

現在のステータス

高度 494.6 km
速度 7.62 km/s
衛星直下点 -53.23°S, 48.86°W
打ち上げ日 Sep 13, 2024
運用期間 1.6 years
タイプ internet

技術仕様

分類 Payload
質量 730.00 kg
乾燥質量 700.00 kg
総質量 730.00 kg
長さ 0.30 m
直径 4.10 m
スパン 29.00 m
形状 Box + pan
製造者 SPXS
バスタイプ Starlink V2M
フェーズステータス In Orbit
所有者/国 SPXS/US

Most Searched